QPF
0.00 0.00 0.00 0.00 0.00 0.00 0.00 0.00 0.00 0.00 0.00 0.00 0.00 0.00 0.00 0.00 0.00 0.00 0.00 0.00 0.00 0.00 0.00 0.00 0.00 0.00 0.00 0.00 0.00 0.00 0.00 0.00 0.00 0.00 0.00 0.00 0.00 0.00 0.00 0.00 0.00 0.00
0.00 0.00 0.00 0.00 0.00 0.00 0.00 0.00 0.00 0.00 0.00 0.00 0.00 0.00 0.00 0.00 0.00 0.00 0.00 0.00 0.00 0.00 0.00 0.00 0.00 0.00 0.00 0.00 0.00 0.00 0.00 0.00 0.00 0.00 0.00 0.00 0.00 0.00 0.00 0.00 0.00 0.00
0.00 0.00 0.00 0.00 0.00 0.00 0.00 0.00 0.00 0.00 0.00 0.00 0.00 0.00 0.00 0.00 0.00 0.00 0.00 0.00 0.00 0.00 0.00 0.00 0.00 0.00 0.00 0.00 0.00 0.00 0.00 0.00 0.00 0.00 0.00 0.00 0.00 0.00 0.00 0.00 0.00 0.00
0.00 0.00 0.00 0.00 0.00 0.00 0.00 0.00 0.00 0.00 0.00 0.00 0.00 0.00 0.00 0.00 0.00 0.00 0.00 0.00 0.00 0.00 0.00 0.00 0.00 0.00 0.00 0.00 0.00 0.00 0.00 0.00 0.00 0.00 0.00 0.00 0.00 0.00 0.00 0.00 0.00 0.00
0.00 0.00 0.00 0.00 0.00 0.00 0.00 0.00 0.00 0.00 0.00 0.00 0.00 0.00 0.00 0.00 0.00 0.00 0.00 0.00 0.00 0.00 0.00 0.00 0.00 0.00 0.00 0.00 0.00 0.00 0.00 0.00 0.00 0.00 0.00 0.00 0.00 0.00 0.00 0.00 0.00 0.00
0.00 0.00 0.00 0.00 0.00 0.00 0.00 0.00 0.00 0.00 0.00 0.00 0.00 0.00 0.00 0.00 0.00 0.00 0.00 0.00 0.00 0.00 0.00 0.00 0.00 0.00 0.00 0.00 0.00 0.00 0.00 0.00 0.00 0.00 0.00 0.00 0.00 0.00 0.00 0.00 0.00 0.00
0.00 0.00 0.00 0.00 0.00 0.00 0.00 0.00 0.00 0.00 0.00 0.00 0.00 0.00 0.00 0.00 0.00 0.00 0.00 0.00 0.00 0.00 0.00 0.00 0.00 0.00 0.00 0.00 0.00 0.00 0.00 0.00 0.00 0.00 0.00 0.00 0.00 0.00 0.00 0.00 0.00 0.00
0.00 0.00 0.00 0.00 0.00 0.00 0.00 0.00 0.00 0.00 0.00 0.00 0.00 0.00 0.00 0.00 0.00 0.00 0.00 0.00 0.00 0.00 0.00 0.00 0.00 0.00 0.00 0.00 0.00 0.00 0.00 0.00 0.00 0.00 0.00 0.00 0.00 0.00 0.00 0.00 0.00 0.00
0.00 0.00 0.00 0.00 0.00 0.00 0.00 0.00 0.00 0.00 0.00 0.00 0.00 0.00 0.00 0.00 0.00 0.00 0.00 0.00 0.00 0.00 0.00 0.00 0.00 0.00 0.00 0.00 0.00 0.00 0.00 0.00 0.00 0.00 0.00 0.00 0.00 0.00 0.00 0.00 0.00 0.00
0.00 0.00 0.00 0.00 0.00 0.00 0.00 0.00 0.00 0.00 0.00 0.00 0.00 0.00 0.00 0.00 0.00 0.00 0.00 0.00 0.00 0.00 0.00 0.00 0.00 0.00 0.00 0.00 0.00 0.00 0.00 0.00 0.00 0.00 0.00 0.00 0.00 0.00 0.00 0.00 0.00 0.00
0.01 0.01 0.00 0.00 0.00 0.00 0.01 0.00 0.00 0.00 0.00 0.00 0.00 0.00 0.00 0.00 0.00 0.00 0.00 0.00 0.00 0.00 0.00 0.00 0.00 0.00 0.00 0.00 0.00 0.00 0.00 0.00 0.00 0.00 0.00 0.00 0.00 0.00 0.00 0.00 0.00 0.00
0.00 0.00 0.00 0.00 0.00 0.00 0.01 0.03 0.00 0.00 0.00 0.00 0.00 0.00 0.00 0.00 0.00 0.00 0.00 0.00 0.00 0.00 0.00 0.00 0.00 0.00 0.00 0.00 0.00 0.00 0.00 0.00 0.00 0.00 0.00 0.00 0.00 0.00 0.00 0.00 0.00 0.00
0.00 0.00 0.00 0.00 0.00 0.00 0.00 0.00 0.00 0.00 0.00 0.00 0.00 0.00 0.00 0.00 0.00 0.00 0.00 0.00 0.00 0.00 0.00 0.00 0.00 0.00 0.00 0.00 0.00 0.00 0.00 0.00 0.00 0.00 0.00 0.00 0.00 0.00 0.00 0.00 0.00 0.00
0.05 0.00 0.00 0.00 0.00 0.00 0.00 0.00 0.00 0.00 0.00 0.00 0.00 0.00 0.00 0.00 0.00 0.00 0.00 0.00 0.00 0.00 0.00 0.00 0.00 0.00 0.00 0.00 0.00 0.00 0.00 0.00 0.00 0.00 0.00 0.00 0.00 0.00 0.00 0.00 0.00 0.00
0.00 0.02 0.00 0.00 0.00 0.00 0.00 0.00 0.00 0.00 0.00 0.00 0.00 0.00 0.00 0.00 0.00 0.00 0.00 0.00 0.00 0.00 0.00 0.00 0.00 0.00 0.00 0.00 0.00 0.00 0.00 0.00 0.00 0.00 0.00 0.00 0.00 0.00 0.00 0.00 0.00 0.00
0.00 0.06 0.09 0.01 0.00 0.00 0.00 0.00 0.00 0.00 0.00 0.00 0.00 0.00 0.00 0.00 0.00 0.00 0.00 0.00 0.00 0.00 0.00 0.00 0.00 0.00 0.00 0.00 0.00 0.00 0.00 0.00 0.00 0.00 0.00 0.00 0.00 0.00 0.00 0.00 0.00 0.00
0.05 0.02 0.00 0.00 0.02 0.00 0.00 0.00 0.00 0.00 0.00 0.00 0.00 0.00 0.00 0.00 0.00 0.00 0.00 0.00 0.00 0.00 0.00 0.00 0.00 0.00 0.00 0.00 0.00 0.00 0.00 0.00 0.00 0.00 0.00 0.00 0.00 0.00 0.00 0.00 0.00 0.00
0.12 0.04 0.00 0.03 0.05 0.06 0.06 0.02 0.00 0.00 0.00 0.00 0.00 0.00 0.00 0.00 0.00 0.00 0.00 0.00 0.00 0.00 0.00 0.00 0.00 0.00 0.00 0.00 0.00 0.00 0.00 0.00 0.00 0.00 0.00 0.00 0.00 0.00 0.00 0.00 0.00 0.00
0.03 0.06 0.09 0.11 0.28 0.17 0.10 0.00 0.00 0.00 0.00 0.00 0.00 0.00 0.00 0.00 0.00 0.00 0.00 0.00 0.00 0.00 0.00 0.00 0.00 0.00 0.00 0.00 0.00 0.00 0.00 0.00 0.00 0.00 0.00 0.00 0.00 0.00 0.00 0.00 0.00 0.00
0.00 0.07 0.15 0.12 0.08 0.04 0.00 0.00 0.00 0.00 0.00 0.00 0.00 0.00 0.00 0.00 0.00 0.00 0.00 0.00 0.00 0.00 0.00 0.00 0.00 0.00 0.00 0.00 0.00 0.00 0.00 0.00 0.00 0.00 0.00 0.00 0.00 0.00 0.00 0.00 0.00 0.00
0.03 0.08 0.18 0.24 0.09 0.00 0.00 0.00 0.00 0.00 0.00 0.00 0.00 0.00 0.00 0.00 0.00 0.00 0.00 0.00 0.00 0.00 0.00 0.00 0.00 0.00 0.00 0.00 0.00 0.00 0.00 0.00 0.00 0.00 0.00 0.00 0.00 0.00 0.00 0.00 0.00 0.00
0.01 0.02 0.02 0.04 0.03 0.00 0.00 0.00 0.00 0.00 0.00 0.00 0.00 0.00 0.00 0.00 0.00 0.00 0.00 0.00 0.00 0.00 0.00 0.00 0.00 0.00 0.00 0.00 0.00 0.00 0.00 0.00 0.00 0.00 0.00 0.00 0.00 0.00 0.00 0.00 0.00 0.00
0.02 0.06 0.09 0.03 0.01 0.00 0.00 0.00 0.00 0.00 0.00 0.00 0.00 0.00 0.00 0.00 0.00 0.00 0.00 0.00 0.00 0.00 0.00 0.00 0.00 0.00 0.00 0.00 0.00 0.00 0.00 0.00 0.00 0.00 0.00 0.00 0.00 0.00 0.00 0.00 0.00 0.00
0.08 0.01 0.03 0.02 0.00 0.00 0.00 0.00 0.00 0.00 0.00 0.00 0.00 0.00 0.00 0.00 0.00 0.00 0.00 0.00 0.00 0.00 0.00 0.00 0.00 0.00 0.00 0.00 0.00 0.00 0.00 0.00 0.00 0.00 0.00 0.00 0.00 0.00 0.00 0.00 0.00 0.00
0.02 0.02 0.01 0.03 0.03 0.00 0.00 0.00 0.00 0.00 0.00 0.00 0.00 0.00 0.00 0.00 0.00 0.00 0.00 0.00 0.00 0.00 0.00 0.00 0.00 0.00 0.00 0.00 0.00 0.00 0.00 0.00 0.00 0.00 0.00 0.00 0.00 0.00 0.00 0.00 0.00 0.00
0.01 0.02 0.01 0.00 0.01 0.00 0.00 0.00 0.00 0.00 0.00 0.00 0.00 0.00 0.00 0.00 0.00 0.00 0.00 0.00 0.00 0.00 0.00 0.00 0.00 0.00 0.00 0.00 0.00 0.00 0.00 0.00 0.00 0.00 0.00 0.00 0.00 0.00 0.00 0.00 0.00 0.00
MSLP
1020.56 1020.84 1021.20 1021.60 1022.00 1022.28 1022.56 1022.84 1023.16 1023.36 1023.68 1023.88 1024.08 1024.36 1024.40 1024.56 1024.56 1024.48 1024.56 1024.60 1024.72 1024.84 1025.00 1025.08 1025.08 1025.20 1025.32 1025.40 1025.52 1025.68 1025.88 1026.12 1026.28 1026.40 1026.52 1026.60 1026.80 1026.84 1027.04 1027.16 1027.24 1027.24
1020.76 1021.04 1021.40 1021.80 1022.24 1022.52 1022.80 1022.96 1023.20 1023.48 1023.84 1024.12 1024.32 1024.48 1024.64 1024.64 1024.76 1024.72 1024.80 1024.92 1025.04 1025.20 1025.28 1025.32 1025.40 1025.48 1025.60 1025.72 1025.88 1026.00 1026.24 1026.36 1026.56 1026.68 1026.80 1026.92 1027.12 1027.16 1027.28 1027.36 1027.44 1027.52
1020.84 1021.20 1021.52 1021.88 1022.24 1022.60 1022.88 1023.16 1023.40 1023.72 1024.04 1024.32 1024.48 1024.60 1024.76 1024.84 1024.92 1025.00 1025.12 1025.20 1025.32 1025.48 1025.56 1025.64 1025.68 1025.80 1025.88 1026.00 1026.12 1026.24 1026.48 1026.64 1026.84 1027.00 1027.00 1027.20 1027.28 1027.36 1027.52 1027.56 1027.60 1027.72
1021.04 1021.24 1021.60 1021.96 1022.28 1022.64 1022.96 1023.28 1023.68 1024.00 1024.24 1024.40 1024.64 1024.76 1024.84 1025.04 1025.08 1025.24 1025.36 1025.48 1025.60 1025.80 1025.92 1025.92 1025.96 1026.08 1026.20 1026.32 1026.40 1026.60 1026.72 1026.88 1027.04 1027.12 1027.20 1027.36 1027.44 1027.48 1027.64 1027.68 1027.80 1027.88
1021.08 1021.44 1021.72 1022.08 1022.40 1022.68 1023.04 1023.40 1023.80 1024.12 1024.36 1024.60 1024.84 1024.92 1025.00 1025.16 1025.32 1025.48 1025.64 1025.84 1025.88 1026.04 1026.12 1026.16 1026.24 1026.40 1026.48 1026.60 1026.60 1026.80 1026.92 1027.08 1027.20 1027.24 1027.32 1027.48 1027.60 1027.60 1027.76 1027.80 1027.88 1027.96
1021.32 1021.52 1021.76 1022.08 1022.40 1022.72 1023.16 1023.56 1023.92 1024.24 1024.48 1024.72 1025.04 1025.16 1025.28 1025.40 1025.52 1025.68 1025.88 1026.00 1026.16 1026.24 1026.32 1026.40 1026.52 1026.68 1026.76 1026.80 1026.88 1026.96 1027.04 1027.16 1027.32 1027.32 1027.44 1027.56 1027.72 1027.84 1027.88 1027.96 1027.96 1027.96
1021.40 1021.68 1021.96 1022.24 1022.56 1022.88 1023.28 1023.76 1024.08 1024.36 1024.60 1024.92 1025.16 1025.36 1025.48 1025.60 1025.76 1025.96 1026.08 1026.20 1026.32 1026.40 1026.48 1026.60 1026.76 1026.96 1027.00 1027.00 1027.04 1027.12 1027.20 1027.24 1027.40 1027.44 1027.56 1027.76 1027.80 1027.96 1028.08 1028.00 1027.96 1027.96
1021.48 1021.72 1022.00 1022.32 1022.68 1023.12 1023.48 1023.92 1024.28 1024.52 1024.72 1025.00 1025.24 1025.64 1025.68 1025.84 1026.04 1026.20 1026.32 1026.40 1026.48 1026.64 1026.72 1026.84 1026.96 1027.04 1027.12 1027.08 1027.12 1027.24 1027.32 1027.36 1027.48 1027.56 1027.68 1027.80 1027.88 1027.92 1028.08 1028.08 1028.00 1027.84
1021.48 1021.80 1022.08 1022.44 1022.84 1023.28 1023.68 1024.04 1024.40 1024.68 1024.84 1025.04 1025.40 1025.72 1025.96 1026.08 1026.28 1026.40 1026.48 1026.56 1026.68 1026.84 1026.88 1026.96 1027.08 1027.16 1027.16 1027.12 1027.20 1027.20 1027.28 1027.40 1027.52 1027.56 1027.64 1027.68 1027.76 1027.92 1028.00 1028.04 1027.92 1027.84
1021.52 1021.84 1022.20 1022.56 1023.00 1023.48 1023.88 1024.28 1024.56 1024.80 1025.04 1025.24 1025.56 1025.80 1026.00 1026.36 1026.48 1026.56 1026.64 1026.68 1026.76 1026.96 1027.00 1027.04 1027.16 1027.20 1027.24 1027.20 1027.20 1027.20 1027.24 1027.40 1027.56 1027.60 1027.64 1027.64 1027.72 1027.92 1028.04 1028.00 1027.88 1027.80
1021.64 1021.88 1022.24 1022.64 1023.12 1023.60 1024.04 1024.44 1024.72 1024.96 1025.16 1025.36 1025.60 1025.88 1026.16 1026.36 1026.60 1026.72 1026.76 1026.80 1026.80 1026.92 1027.04 1027.12 1027.20 1027.20 1027.24 1027.32 1027.32 1027.24 1027.24 1027.40 1027.52 1027.52 1027.60 1027.68 1027.76 1027.96 1028.08 1028.00 1027.92 1027.84
1021.76 1022.04 1022.32 1022.72 1023.16 1023.68 1024.08 1024.40 1024.72 1024.96 1025.20 1025.44 1025.60 1025.92 1026.28 1026.48 1026.64 1026.84 1026.84 1026.92 1027.00 1027.08 1027.16 1027.20 1027.32 1027.32 1027.28 1027.32 1027.32 1027.32 1027.36 1027.44 1027.52 1027.56 1027.64 1027.72 1027.84 1028.12 1028.16 1028.04 1027.92 1027.88
1021.96 1022.28 1022.56 1022.88 1023.24 1023.72 1024.16 1024.44 1024.68 1024.92 1025.04 1025.36 1025.72 1026.00 1026.28 1026.56 1026.80 1026.92 1027.08 1027.00 1027.12 1027.20 1027.24 1027.28 1027.36 1027.44 1027.44 1027.44 1027.40 1027.32 1027.24 1027.28 1027.40 1027.56 1027.72 1027.88 1028.20 1028.24 1028.20 1028.12 1028.00 1028.00
1021.92 1022.32 1022.64 1023.00 1023.44 1023.76 1024.12 1024.44 1024.72 1024.92 1025.16 1025.48 1025.80 1026.16 1026.40 1026.64 1026.80 1026.92 1027.12 1027.12 1027.20 1027.28 1027.40 1027.48 1027.44 1027.52 1027.64 1027.60 1027.52 1027.32 1027.20 1027.20 1027.32 1027.44 1027.56 1028.00 1028.24 1028.36 1028.36 1028.12 1028.04 1028.08
1022.04 1022.36 1022.68 1023.04 1023.44 1023.88 1024.24 1024.48 1024.68 1024.96 1025.32 1025.64 1025.92 1026.24 1026.56 1026.80 1026.96 1027.04 1027.12 1027.20 1027.36 1027.44 1027.48 1027.52 1027.44 1027.48 1027.60 1027.56 1027.44 1027.44 1027.24 1027.20 1027.36 1027.48 1027.68 1027.96 1028.12 1028.24 1028.32 1028.20 1028.08 1028.12
1021.92 1022.32 1022.68 1023.00 1023.40 1023.80 1024.12 1024.40 1024.72 1025.04 1025.40 1025.76 1026.04 1026.32 1026.60 1026.88 1027.04 1027.12 1027.12 1027.16 1027.28 1027.48 1027.52 1027.48 1027.44 1027.56 1027.60 1027.56 1027.32 1027.16 1027.28 1027.36 1027.44 1027.52 1027.64 1027.84 1027.96 1028.04 1028.08 1028.08 1028.08 1028.08
1022.00 1022.40 1022.72 1023.08 1023.36 1023.76 1024.12 1024.40 1024.80 1025.08 1025.48 1025.84 1026.16 1026.40 1026.64 1026.84 1027.04 1027.08 1027.16 1027.28 1027.28 1027.32 1027.36 1027.44 1027.52 1027.56 1027.56 1027.44 1027.24 1027.16 1027.16 1027.28 1027.28 1027.48 1027.64 1027.80 1027.84 1027.88 1027.88 1027.96 1028.00 1028.04
1021.92 1022.32 1022.72 1023.16 1023.60 1024.00 1024.28 1024.52 1024.84 1025.08 1025.44 1025.88 1026.16 1026.44 1026.68 1026.88 1027.00 1027.08 1027.24 1027.36 1027.44 1027.44 1027.36 1027.48 1027.52 1027.60 1027.52 1027.36 1027.28 1027.28 1027.24 1027.32 1027.40 1027.44 1027.60 1027.72 1027.88 1027.88 1027.88 1027.92 1027.92 1027.96
1021.84 1022.24 1022.68 1023.16 1023.60 1024.08 1024.36 1024.64 1024.88 1025.08 1025.44 1025.80 1026.08 1026.40 1026.64 1026.76 1027.00 1027.16 1027.24 1027.40 1027.28 1027.20 1027.36 1027.52 1027.56 1027.68 1027.52 1027.40 1027.36 1027.36 1027.32 1027.32 1027.48 1027.52 1027.48 1027.64 1027.80 1027.88 1027.92 1027.92 1027.96 1028.16
1021.68 1022.12 1022.56 1023.00 1023.36 1023.76 1024.16 1024.56 1024.80 1025.04 1025.40 1025.72 1026.00 1026.40 1026.60 1026.88 1027.12 1027.12 1027.28 1027.28 1027.20 1027.16 1027.40 1027.60 1027.60 1027.68 1027.48 1027.44 1027.44 1027.44 1027.44 1027.44 1027.64 1027.64 1027.76 1027.88 1027.92 1027.96 1028.08 1028.20 1028.32 1028.28
1021.52 1022.00 1022.56 1023.16 1023.52 1023.80 1024.12 1024.44 1024.72 1025.16 1025.48 1025.72 1025.96 1026.24 1026.48 1026.68 1026.92 1027.00 1027.20 1027.24 1027.28 1027.36 1027.40 1027.56 1027.64 1027.68 1027.52 1027.48 1027.52 1027.52 1027.56 1027.60 1027.76 1027.80 1027.88 1027.96 1028.08 1028.12 1028.16 1028.12 1028.20 1028.28
1021.32 1021.92 1022.44 1022.92 1023.24 1023.64 1024.00 1024.44 1024.80 1025.08 1025.44 1025.80 1026.08 1026.44 1026.68 1026.92 1027.12 1027.12 1027.12 1027.20 1027.36 1027.40 1027.32 1027.48 1027.68 1027.72 1027.56 1027.52 1027.56 1027.56 1027.56 1027.64 1027.72 1027.76 1027.84 1027.96 1028.04 1028.16 1028.20 1028.28 1028.32 1028.24
1021.28 1021.80 1022.32 1022.72 1023.16 1023.48 1023.80 1024.20 1024.60 1025.04 1025.44 1025.72 1026.04 1026.36 1026.60 1026.76 1026.80 1026.88 1027.08 1027.20 1027.36 1027.36 1027.24 1027.48 1027.60 1027.72 1027.60 1027.56 1027.56 1027.56 1027.60 1027.76 1027.76 1027.80 1027.88 1027.88 1027.96 1028.12 1028.12 1028.20 1028.28 1028.28
1021.00 1021.40 1021.92 1022.36 1022.92 1023.32 1023.72 1024.16 1024.48 1024.84 1025.20 1025.52 1025.68 1026.16 1026.40 1026.52 1026.68 1026.88 1027.20 1027.24 1027.16 1027.24 1027.24 1027.28 1027.52 1027.64 1027.56 1027.52 1027.52 1027.56 1027.60 1027.68 1027.72 1027.72 1027.84 1027.84 1027.92 1028.04 1028.12 1028.16 1028.32 1028.16
1020.88 1021.32 1021.72 1022.16 1022.68 1023.16 1023.48 1023.92 1024.40 1024.68 1025.00 1025.36 1025.64 1025.88 1026.08 1026.48 1026.68 1026.76 1027.08 1027.24 1027.24 1027.24 1027.28 1027.28 1027.40 1027.48 1027.52 1027.52 1027.52 1027.60 1027.72 1027.80 1027.76 1027.68 1027.64 1027.84 1027.84 1027.76 1027.92 1028.00 1028.12 1028.32
1020.68 1021.08 1021.44 1021.72 1022.24 1022.88 1023.32 1023.64 1024.16 1024.72 1025.08 1025.36 1025.64 1025.80 1026.08 1026.44 1026.60 1026.64 1026.64 1026.92 1027.24 1027.32 1027.28 1027.32 1027.32 1027.40 1027.48 1027.56 1027.64 1027.72 1027.76 1027.80 1027.80 1027.48 1027.60 1027.76 1027.88 1027.84 1027.60 1027.52 1027.72 1027.72
Thickness
5632 5629 5627 5625 5622 5621 5620 5618 5617 5615 5612 5611 5610 5608 5608 5607 5607 5607 5606 5604 5604 5601 5600 5598 5596 5594 5592 5590 5587 5584 5581 5578 5574 5571 5568 5565 5561 5558 5554 5550 5548 5545
5628 5626 5624 5622 5619 5617 5616 5615 5614 5612 5609 5608 5607 5605 5604 5604 5603 5603 5602 5600 5598 5596 5595 5593 5591 5589 5586 5584 5581 5578 5576 5572 5569 5565 5562 5559 5555 5552 5548 5545 5542 5540
5626 5624 5621 5619 5618 5615 5613 5612 5610 5608 5606 5604 5603 5602 5601 5600 5600 5598 5597 5595 5594 5591 5590 5588 5586 5584 5581 5578 5576 5573 5570 5567 5563 5560 5556 5553 5550 5546 5543 5540 5536 5534
5623 5621 5619 5617 5615 5613 5611 5609 5606 5604 5602 5601 5600 5598 5598 5596 5595 5594 5592 5590 5589 5586 5584 5582 5580 5578 5576 5573 5571 5568 5564 5562 5558 5555 5551 5547 5544 5541 5538 5535 5532 5529
5620 5618 5617 5614 5613 5611 5608 5606 5603 5600 5599 5598 5596 5595 5594 5593 5591 5590 5588 5586 5584 5582 5579 5577 5575 5573 5570 5568 5566 5563 5560 5556 5553 5550 5546 5542 5540 5536 5532 5530 5527 5523
5618 5615 5614 5612 5611 5608 5606 5602 5600 5598 5596 5594 5592 5591 5590 5589 5587 5585 5584 5581 5579 5577 5574 5572 5570 5567 5565 5563 5561 5558 5555 5552 5548 5545 5542 5538 5535 5531 5528 5525 5522 5519
5615 5613 5612 5610 5608 5606 5602 5599 5596 5595 5593 5591 5589 5588 5586 5585 5583 5580 5579 5576 5574 5572 5570 5568 5565 5562 5560 5558 5556 5554 5550 5547 5544 5541 5538 5534 5530 5526 5523 5520 5518 5514
5612 5610 5609 5607 5604 5602 5599 5596 5594 5592 5590 5589 5586 5584 5582 5580 5578 5576 5574 5572 5570 5568 5566 5564 5561 5558 5556 5555 5552 5549 5546 5543 5540 5536 5533 5530 5526 5522 5518 5516 5513 5510
5610 5608 5606 5604 5601 5598 5595 5592 5590 5589 5588 5586 5583 5580 5578 5576 5574 5572 5570 5568 5566 5564 5561 5559 5556 5554 5552 5551 5548 5546 5543 5539 5536 5533 5529 5526 5522 5518 5514 5511 5509 5507
5608 5606 5604 5601 5598 5594 5592 5589 5587 5586 5584 5582 5580 5577 5574 5572 5569 5568 5566 5564 5562 5560 5558 5555 5553 5551 5549 5547 5544 5542 5539 5536 5532 5529 5526 5522 5518 5514 5510 5507 5505 5503
5606 5604 5601 5598 5595 5592 5588 5586 5584 5582 5580 5579 5576 5573 5570 5567 5566 5564 5562 5560 5558 5556 5554 5552 5550 5547 5545 5543 5541 5538 5536 5532 5529 5526 5522 5518 5514 5510 5506 5503 5501 5498
5602 5600 5598 5596 5593 5589 5586 5583 5581 5579 5577 5576 5573 5570 5566 5564 5562 5560 5558 5556 5554 5552 5550 5548 5546 5544 5542 5539 5537 5534 5532 5528 5525 5521 5518 5514 5510 5506 5502 5499 5496 5494
5598 5596 5594 5592 5589 5586 5583 5580 5578 5576 5574 5572 5569 5566 5562 5560 5558 5555 5553 5552 5550 5548 5546 5544 5542 5540 5537 5534 5532 5531 5528 5525 5521 5518 5514 5509 5505 5501 5498 5495 5492 5488
5594 5592 5590 5588 5586 5583 5580 5578 5575 5572 5570 5568 5564 5561 5558 5556 5554 5551 5549 5547 5546 5544 5542 5540 5538 5535 5532 5530 5528 5526 5524 5522 5518 5514 5510 5506 5500 5497 5493 5490 5488 5484
5592 5590 5588 5585 5582 5579 5577 5574 5572 5569 5566 5563 5560 5557 5554 5551 5549 5547 5545 5543 5541 5540 5537 5536 5534 5530 5528 5526 5524 5522 5520 5517 5514 5510 5506 5502 5497 5493 5490 5486 5483 5480
5589 5586 5584 5582 5579 5576 5573 5570 5568 5565 5562 5558 5556 5552 5549 5547 5544 5542 5541 5539 5537 5535 5534 5532 5530 5527 5524 5522 5521 5519 5516 5514 5510 5506 5502 5498 5494 5490 5487 5483 5479 5476
5586 5583 5580 5578 5574 5571 5568 5565 5562 5560 5557 5553 5550 5548 5544 5542 5540 5538 5537 5535 5533 5532 5530 5528 5525 5523 5521 5520 5518 5516 5514 5510 5507 5504 5499 5495 5491 5487 5484 5480 5476 5473
5580 5578 5576 5572 5568 5565 5562 5559 5557 5555 5552 5548 5546 5543 5540 5538 5536 5534 5532 5530 5529 5527 5526 5523 5521 5518 5518 5516 5514 5512 5510 5507 5504 5500 5496 5492 5488 5484 5480 5477 5474 5470
5578 5574 5571 5568 5565 5561 5558 5555 5553 5551 5548 5544 5542 5539 5536 5534 5532 5530 5528 5526 5525 5524 5521 5519 5517 5515 5514 5512 5510 5508 5506 5504 5500 5496 5493 5489 5485 5481 5477 5474 5470 5466
5575 5572 5568 5564 5562 5558 5554 5551 5549 5546 5543 5541 5538 5535 5532 5530 5528 5526 5524 5522 5521 5520 5517 5514 5512 5511 5510 5508 5506 5504 5502 5500 5496 5492 5488 5485 5481 5477 5473 5470 5466 5463
5573 5569 5565 5561 5557 5554 5550 5547 5545 5542 5540 5537 5535 5532 5529 5526 5524 5522 5520 5518 5517 5515 5513 5510 5508 5507 5506 5504 5502 5500 5498 5495 5492 5488 5484 5480 5477 5474 5470 5467 5463 5460
5570 5566 5562 5557 5554 5551 5548 5544 5542 5538 5536 5534 5531 5527 5524 5522 5520 5518 5516 5514 5512 5511 5509 5507 5504 5502 5502 5500 5498 5497 5494 5491 5488 5484 5481 5477 5473 5470 5467 5464 5461 5458
5567 5563 5559 5555 5552 5548 5545 5542 5539 5536 5533 5530 5527 5523 5520 5518 5516 5514 5513 5511 5508 5506 5505 5503 5500 5498 5498 5496 5495 5493 5490 5486 5483 5480 5477 5474 5470 5467 5464 5461 5459 5456
5565 5562 5558 5554 5549 5545 5542 5540 5536 5534 5530 5527 5524 5521 5518 5516 5514 5511 5508 5506 5504 5503 5501 5500 5497 5495 5494 5492 5491 5488 5486 5482 5479 5476 5473 5470 5467 5464 5461 5458 5456 5454
5562 5559 5556 5552 5547 5542 5540 5538 5533 5530 5527 5524 5522 5518 5515 5512 5510 5508 5505 5502 5500 5498 5497 5496 5494 5492 5490 5488 5486 5484 5481 5478 5475 5473 5470 5467 5464 5462 5460 5457 5454 5452
5560 5556 5553 5550 5546 5541 5538 5535 5530 5526 5523 5520 5518 5515 5512 5509 5506 5504 5502 5499 5496 5494 5493 5492 5490 5488 5487 5484 5482 5479 5477 5474 5472 5470 5468 5464 5462 5459 5458 5455 5453 5451